Weather History for Columbia, MO

Change the Weather History Date:

Tuesday, August 27, 2013

  Actual Average Record
Temperature  
Mean Temperature 83 °F 75 °F  
Max Temperature 96 °F 86 °F 103 °F (1983)
Min Temperature 69 °F 64 °F 46 °F (1910)
Degree Days  
Heating Degree Days 0 0  
Month to date heating degree days 0 0  
Since 1 June heating degree days 6 11  
Since 1 July heating degree days 0 0  
Cooling Degree Days 18 10  
Month to date cooling degree days 266 311  
Year to date cooling degree days 989 1044  
Since 1 June cooling degree days 855 941  
Growing Degree Days 32 (Base 50)    
Moisture  
Dew Point 66 °F    
Average Humidity 67    
Maximum Humidity 100    
Minimum Humidity 34    
Precipitation  
Precipitation 0.00 in 0.14 in 1.64 in (1981)
Month to date precipitation 1.88 3.80  
Year to date precipitation 33.09 29.19  
Snow  
Snow 0.00 in 0.00 in 0.00 in (2013)
Month to date snowfall 0.0 0.0  
Since 1 June snowfall 0.0 0.0  
Since 1 July snowfall 0.0 0.0  
Snow Depth 0.00 in    
Sea Level Pressure  
Sea Level Pressure 30.04 in    
Wind  
Wind Speed 9 mph (SW)    
Max Wind Speed 20 mph    
Max Gust Speed 25 mph    
Visibility 9 miles    
Events      
T = Trace of Precipitation, MM = Missing Value Source: NWS Daily Summary

Daily Weather History Graph

Daily Weather History Graph

Search for Another Location

Airport:

Trip Planner

Search our weather history database for the weather conditions in past years. The results will help you decide how hot, cold, wet, or windy it might be!

Date:

Astronomy

Aug. 27, 2013 Rise Set
Actual Time 6:33 AM CDT 7:46 PM CDT
Civil Twilight 6:06 AM CDT 8:13 PM CDT
Nautical Twilight 5:33 AM CDT 8:46 PM CDT
Astronomical Twilight 4:58 AM CDT 9:20 PM CDT
Moon 11:44 PM CDT (8/27) 1:27 PM CDT (8/27)
Length of Visible Light 14h 07m
Length of Day
13h 12m
Waning Gibbous, 57% of the Moon is Illuminated
Aug 27
Waning Gibbous
Aug 28
Last Quarter
Sep 5
New
Sep 12
First Quarter
Sep 19
Full

Hourly Weather History & Observations

Time (CDT) Temp. Heat Index Dew Point Humidity Pressure Visibility Wind Dir Wind Speed Gust Speed Precip Events Conditions
12:54 AM 75.9 °F - 70.0 °F 82% 30.07 in 10.0 mi SSE 3.5 mph - N/A   Clear
1:54 AM 73.0 °F - 69.1 °F 87% 30.06 in 10.0 mi Calm Calm - N/A   Clear
2:54 AM 72.0 °F - 70.0 °F 93% 30.06 in 10.0 mi South 5.8 mph - N/A   Clear
3:54 AM 71.1 °F - 69.1 °F 93% 30.06 in 10.0 mi South 5.8 mph - N/A   Clear
4:54 AM 70.0 °F - 69.1 °F 97% 30.05 in 7.0 mi South 5.8 mph - N/A   Clear
5:54 AM 71.1 °F - 69.1 °F 93% 30.06 in 7.0 mi South 5.8 mph - N/A   Clear
6:54 AM 69.1 °F - 68.0 °F 96% 30.07 in 3.0 mi South 5.8 mph - N/A   Clear
7:54 AM 73.0 °F - 71.1 °F 93% 30.09 in 9.0 mi South 5.8 mph - N/A   Clear
8:54 AM 80.1 °F 83.6 °F 71.1 °F 74% 30.09 in 10.0 mi SW 10.4 mph - N/A   Clear
9:54 AM 84.9 °F 87.6 °F 66.9 °F 55% 30.09 in 10.0 mi WSW 11.5 mph - N/A   Clear
10:54 AM 88.0 °F 90.7 °F 66.9 °F 49% 30.09 in 10.0 mi WSW 11.5 mph - N/A   Clear
11:54 AM 90.0 °F 91.3 °F 64.0 °F 42% 30.07 in 10.0 mi West 11.5 mph - N/A   Clear
12:54 PM 93.0 °F 94.2 °F 63.0 °F 37% 30.05 in 10.0 mi WSW 13.8 mph 20.7 mph N/A   Clear
1:54 PM 93.9 °F 94.8 °F 62.1 °F 35% 30.03 in 10.0 mi SW 17.3 mph - N/A   Clear
2:54 PM 93.9 °F 94.8 °F 62.1 °F 35% 30.00 in 10.0 mi SW 11.5 mph - N/A   Partly Cloudy
3:54 PM 95.0 °F 95.6 °F 62.1 °F 33% 29.99 in 10.0 mi WSW 13.8 mph 23.0 mph N/A   Partly Cloudy
4:54 PM 93.9 °F 94.8 °F 62.1 °F 35% 29.99 in 10.0 mi SW 16.1 mph - N/A   Clear
5:54 PM 89.1 °F 89.0 °F 61.0 °F 39% 29.99 in 10.0 mi SW 12.7 mph - N/A   Clear
6:54 PM 89.1 °F 89.0 °F 61.0 °F 39% 29.99 in 10.0 mi SW 9.2 mph - N/A   Clear
7:54 PM 82.0 °F 83.1 °F 63.0 °F 52% 29.99 in 10.0 mi SW 8.1 mph - N/A   Clear
8:54 PM 75.9 °F - 64.9 °F 69% 30.00 in 10.0 mi SSW 6.9 mph - N/A   Clear
9:54 PM 75.0 °F - 66.0 °F 73% 30.01 in 10.0 mi SSW 6.9 mph - N/A   Clear
10:54 PM 73.0 °F - 64.9 °F 76% 30.02 in 10.0 mi SSW 6.9 mph - N/A   Clear
11:54 PM 73.0 °F - 64.9 °F 76% 30.01 in 10.0 mi SSW 8.1 mph - N/A   Clear